Weather History for Ypsilanti, MI

Change the Weather History Date:

Thursday, May 9, 2013

  Actual Average Record
Temperature  
Mean Temperature 65 °F -  
Max Temperature 82 °F 69 °F 88 °F (1979)
Min Temperature 48 °F 47 °F 31 °F (1983)
Growing Degree Days 15 (Base 50)    
Moisture  
Dew Point 49 °F    
Average Humidity 64    
Maximum Humidity 88    
Minimum Humidity 30    
Precipitation  
Precipitation 0.00 in - - ()
Sea Level Pressure  
Sea Level Pressure 29.94 in    
Wind  
Wind Speed 2 mph (SE)    
Max Wind Speed 12 mph    
Max Gust Speed -    
Visibility 7 miles    
Events Fog    
Averages and records for this station are not official NWS values.
T = Trace of Precipitation, MM = Missing Value Source: NWS Daily Summary

Daily Weather History Graph

Daily Weather History Graph

Search for Another Location

Airport:

Trip Planner

Search our weather history database for the weather conditions in past years. The results will help you decide how hot, cold, wet, or windy it might be!

Date:

Astronomy

May. 09, 2013 Rise Set
Actual Time 6:19 AM EDT 8:42 PM EDT
Civil Twilight 5:47 AM EDT 9:14 PM EDT
Nautical Twilight 5:08 AM EDT 9:53 PM EDT
Astronomical Twilight 4:25 AM EDT 10:36 PM EDT
Moon 6:03 AM EDT (5/9) 8:36 PM EDT (5/9)
Length of Visible Light 15h 26m
Length of Day
14h 23m
Waning Crescent, 0% of the Moon is Illuminated
May 9
Waning Crescent
May 9
New
May 18
First Quarter
May 25
Full
May 31
Last Quarter

Hourly Weather History & Observations

Time (EDT) Temp. Dew Point Humidity Pressure Visibility Wind Dir Wind Speed Gust Speed Precip Events Conditions
12:53 AM 55.9 °F 51.1 °F 84% 29.97 in 10.0 mi SE 3.5 mph - N/A   Clear
1:53 AM 57.9 °F 53.1 °F 84% 29.95 in 9.0 mi Calm Calm - N/A   Clear
2:53 AM 57.0 °F 50.0 °F 77% 29.93 in 10.0 mi Calm Calm - N/A   Clear
3:53 AM 55.9 °F 51.1 °F 84% 29.93 in 8.0 mi Calm Calm - N/A   Clear
4:53 AM 52.0 °F 48.0 °F 86% 29.93 in 3.0 mi NE 4.6 mph - N/A   Clear
5:53 AM 52.0 °F 48.0 °F 86% 29.93 in 5.0 mi Calm Calm - N/A   Partly Cloudy
6:05 AM 50.0 °F 46.4 °F 87% 29.94 in 2.0 mi Calm Calm - N/A   Mostly Cloudy
6:07 AM 50.0 °F 46.4 °F 87% 29.94 in 0.8 mi Calm Calm - N/A   Mist
6:19 AM 51.8 °F 48.2 °F 88% 29.95 in 0.2 mi Calm Calm - N/A Fog Fog
6:29 AM 50.0 °F 46.4 °F 87% 29.96 in 1.2 mi Calm Calm - N/A   Mostly Cloudy
6:36 AM 50.0 °F 46.4 °F 87% 29.96 in 2.0 mi Calm Calm - N/A   Scattered Clouds
6:53 AM 48.9 °F 45.0 °F 86% 29.96 in 7.0 mi Calm Calm - N/A   Partly Cloudy
7:17 AM 53.6 °F 48.2 °F 82% 29.97 in 2.5 mi Calm Calm - N/A   Clear
7:53 AM 59.0 °F 54.0 °F 83% 29.96 in 3.0 mi Calm Calm - N/A   Haze
8:53 AM 66.0 °F 54.0 °F 65% 29.96 in 8.0 mi NNE 3.5 mph - N/A   Clear
9:53 AM 71.1 °F 54.0 °F 55% 29.97 in 10.0 mi Calm Calm - N/A   Clear
10:53 AM 75.0 °F 55.0 °F 50% 29.97 in 10.0 mi Calm Calm - N/A   Clear
11:53 AM 79.0 °F 53.1 °F 40% 29.97 in 10.0 mi WSW 3.5 mph - N/A   Clear
1:53 PM 80.1 °F 46.0 °F 30% 29.96 in 10.0 mi Calm Calm - N/A   Scattered Clouds
2:53 PM 81.0 °F 48.9 °F 33% 29.94 in 10.0 mi Calm Calm - N/A   Overcast
3:53 PM 82.0 °F 48.0 °F 30% 29.92 in 10.0 mi South 4.6 mph - N/A   Partly Cloudy
4:53 PM 79.0 °F 51.1 °F 38% 29.91 in 10.0 mi SSE 11.5 mph - N/A   Partly Cloudy
5:53 PM 79.0 °F 50.0 °F 36% 29.90 in 10.0 mi SSE 10.4 mph - N/A   Clear
6:53 PM 75.9 °F 48.9 °F 38% 29.91 in 10.0 mi SE 9.2 mph - N/A   Partly Cloudy
7:53 PM 72.0 °F 48.9 °F 44% 29.90 in 10.0 mi SSE 6.9 mph - N/A   Clear
8:53 PM 70.0 °F 45.0 °F 41% 29.90 in 10.0 mi SSE 9.2 mph - N/A   Clear
10:53 PM 68.0 °F 48.0 °F 49% 29.91 in 10.0 mi Calm Calm - N/A   Overcast
11:53 PM 66.0 °F 51.1 °F 59% 29.89 in 10.0 mi ENE 5.8 mph - N/A   Overcast